Regional Weather Roundup
Issued by NWS

Home | Current Version | Previous Version | Graphics & Text | Print | Product List | Glossary On
Versions: 1 2 3 4 5 6 7 8 9 10 11 12 13 14 15 16 17 18 19 20 21 22 23 24 25 26 27 28 29 30 31 32 33 34 35 36 37 38 39 40 41 42 43 44 45 46 47 48 49 50
000
ASUS43 KFSD 261102
RWRSD

WEATHER ROUNDUP FOR SOUTH DAKOTA
NATIONAL WEATHER SERVICE SIOUX FALLS SD
600 AM CDT FRI MAY 26 2017

NOTE: "FAIR" INDICATES FEW OR NO CLOUDS BELOW 12,000 FEET WITH NO
SIGNIFICANT WEATHER AND/OR OBSTRUCTIONS TO VISIBILITY.


SDZ001>005-009-010-012>017-261200-
NORTHWEST AND NORTH CENTRAL SOUTH DAKOTA

CITY           SKY/WX    TMP DP  RH WIND       PRES   REMARKS
BUFFALO          N/A     42  37  82 W10       29.77R
FAITH            N/A     47  40  76 W16       29.82R
MOBRIDGE       PTCLDY    48  41  76 NW10      29.74R
$$

SDZ012>016-024>037-041>051-057-063-072>074-261200-
SOUTHWEST AND SOUTH CENTRAL SOUTH DAKOTA

CITY           SKY/WX    TMP DP  RH WIND       PRES   REMARKS
RAPID CTY ARPT CLEAR     44  33  65 CALM      29.88S
PIERRE         CLEAR     50  41  71 W15       29.79R
CUSTER         CLOUDY    41  27  57 N7G17     29.91R
ELLSWORTH AFB  CLEAR     47  34  60 W5        29.87S
PHILIP         CLEAR     46  39  76 W13       29.86R
PINE RIDGE     CLEAR     39  38  96 CALM      29.90R
WINNER         FAIR      50  43  77 NW13G20   29.82R
$$

SDZ004>011-016>023-039-040-261200-
NORTHEAST SOUTH DAKOTA

CITY           SKY/WX    TMP DP  RH WIND       PRES   REMARKS
ABERDEEN       CLEAR     50  42  74 W10       29.72R
WATERTOWN      CLOUDY    51  46  83 NW9       29.70R
BROOKINGS      CLOUDY    52  48  86 MISG      29.70R
SISSETON         N/A     55  47  74 NW10      29.67R
$$

SDZ017-020-022-023-036>040-048>070-261200-
SOUTHEAST SOUTH DAKOTA

CITY           SKY/WX    TMP DP  RH WIND       PRES   REMARKS
SIOUX FALLS    CLOUDY    54  51  90 CALM      29.70R
HURON          CLOUDY    49  45  86 NW9       29.75R
MITCHELL       CLOUDY    54  46  74 NW12      29.76R
YANKTON        CLOUDY    55  47  74 NW17      29.72R
$$

ABBREVIATIONS USED IN REMARKS
   TC - TEMPERATURE IN CELSIUS
  WCI - WIND CHILL INDEX
   HX - HEAT INDEX
  VSB - VISIBILITY





USA.gov is the U.S. government's official web portal to all federal, state and local government web resources and services.